GFSFLT1_prec_cthk_246.txt.gz
RH
25 33 36 38 40 36 33 27 21 19 17 15 14 12 13 12 11 12 14 17 18 18 19 20 21 21 21 22 22 23 23 24
18 26 26 32 37 38 40 36 28 24 20 18 17 15 13 13 12 11 11 12 15 18 18 19 20 20 20 21 21 22 22 22
15 20 25 27 29 31 35 41 34 32 25 19 20 19 17 14 13 12 11 11 11 13 15 17 18 18 19 19 20 22 23 24
19 15 22 22 28 29 32 36 40 35 33 27 21 19 20 17 13 13 12 12 11 11 12 13 15 17 18 19 20 20 22 25
25 22 16 21 22 30 29 30 36 40 43 35 28 19 18 18 17 16 14 14 13 12 12 12 13 14 14 15 17 19 22 22
24 27 25 18 20 20 24 26 29 30 38 41 35 28 21 20 20 18 15 15 15 14 14 13 13 13 14 15 16 18 20 22
25 27 30 28 21 20 21 23 20 23 27 32 36 30 28 27 25 23 18 16 16 16 15 15 15 15 15 16 18 19 21 23
32 26 25 33 31 23 20 19 22 20 22 21 23 25 34 35 33 30 27 25 23 20 17 17 18 18 19 20 21 22 23 24
43 33 29 36 37 35 29 24 22 24 24 22 23 27 31 40 45 41 34 28 27 27 27 26 23 22 23 24 25 26 26 26
60 50 41 41 40 38 41 42 35 35 34 34 32 36 41 42 51 57 52 49 46 41 38 33 33 35 35 36 35 32 32 29
69 65 57 53 49 42 44 47 54 52 50 49 46 49 48 51 56 66 69 74 69 68 52 46 49 48 48 45 40 35 32 34
77 72 63 58 63 58 55 54 57 60 62 58 60 63 61 62 65 71 77 67 93 88 84 73 65 63 57 51 48 46 43 41
75 79 76 63 64 65 61 60 60 61 64 65 65 64 72 72 70 74 74 82 98 99 83 80 86 84 74 65 61 55 51 49
64 68 72 73 64 70 70 65 63 61 64 67 70 66 73 79 79 79 83 78 82 96 99 86 81 86 84 75 77 62 52 43
52 55 58 65 72 71 76 72 66 65 63 64 65 69 68 67 64 62 64 66 71 75 78 74 78 81 81 78 70 57 46 41
44 43 49 57 63 70 70 75 79 75 67 69 66 64 64 67 67 61 58 56 56 58 71 85 87 79 72 73 70 55 47 45
39 39 39 45 58 60 68 69 71 77 75 74 71 69 66 64 66 67 63 67 64 62 63 64 56 53 55 57 54 44 41 40
43 42 42 39 36 44 46 62 66 62 67 75 76 74 74 73 70 67 65 63 66 64 61 57 57 54 51 49 46 42 41 42
44 40 37 38 38 33 33 39 49 53 58 61 62 69 69 71 73 75 75 71 67 70 71 71 68 63 58 55 51 47 43 41

GFSFLT1_prec_cthk_252.txt.gz
RH
27 21 19 26 36 48 46 44 40 34 29 25 23 23 18 20 22 22 23 18 17 18 21 24 24 25 26 26 27 28 29 30
22 29 23 20 27 37 50 48 48 47 41 32 25 22 22 16 20 21 19 18 16 16 17 21 21 23 25 26 27 26 29 29
18 18 26 29 25 30 39 48 53 49 46 44 40 33 25 20 17 20 17 15 16 16 15 16 19 22 21 22 24 27 27 28
23 21 21 24 31 30 32 42 46 51 52 49 46 44 39 31 24 22 19 18 17 16 17 16 17 17 19 20 21 22 26 27
30 25 24 23 23 31 37 34 40 45 55 52 51 47 44 41 40 32 27 22 20 18 18 18 17 18 17 18 19 22 24 25
37 35 30 29 25 25 28 38 39 41 44 56 53 52 50 51 50 46 41 33 24 23 21 19 19 18 18 18 20 20 23 25
41 42 41 38 33 29 27 28 40 44 46 47 58 59 57 57 60 59 53 48 42 33 27 23 20 20 20 19 19 21 23 25
49 52 56 51 45 37 35 30 30 43 47 54 57 67 65 62 64 68 66 60 55 51 46 35 27 23 22 25 24 22 21 23
42 51 55 55 56 55 46 43 38 37 44 51 63 67 71 69 72 70 75 72 66 60 58 55 47 39 28 25 25 26 27 26
32 36 39 48 54 63 63 54 49 45 44 47 55 62 70 73 75 73 76 81 73 66 60 60 62 57 50 40 29 25 25 26
32 34 35 35 39 54 69 78 65 53 49 51 49 55 62 72 75 73 72 85 77 71 66 62 63 62 62 58 51 42 35 31
28 27 31 32 34 31 41 60 77 70 59 51 56 57 61 62 69 81 68 78 85 74 75 67 65 65 68 70 63 57 51 42
29 28 28 27 30 29 30 31 50 73 73 62 62 61 59 63 66 70 70 78 75 81 87 81 78 69 70 74 77 74 61 55
31 32 32 31 30 31 29 25 33 39 59 68 65 66 65 60 66 72 70 74 80 71 73 73 72 77 74 76 80 83 79 79
32 30 30 31 30 30 29 30 34 29 32 47 58 67 68 72 64 65 71 71 69 73 67 68 65 74 76 83 84 89 85 86
34 33 31 29 26 24 24 25 29 27 26 30 38 38 55 62 69 75 69 69 70 68 71 70 69 73 74 86 80 92 96 95
35 35 32 27 25 23 23 20 20 19 21 24 28 34 35 49 59 65 76 76 79 73 72 69 69 72 72 74 73 80 89 88
34 33 32 28 25 25 25 25 23 21 19 20 23 27 28 37 42 47 56 67 74 80 82 79 76 73 70 68 67 70 72 75
32 31 28 25 24 23 19 22 22 22 23 20 22 23 23 23 39 35 33 45 49 60 74 80 81 77 74 71 69 70 71 68

GFSFLT1_prec_cthk_258.txt.gz
RH
31 29 29 29 30 35 35 41 52 62 68 63 59 51 47 42 36 39 39 37 35 35 32 31 31 30 29 25 28 28 27 27
23 21 19 20 23 27 38 39 38 47 63 72 64 61 58 58 51 45 39 43 41 35 33 31 31 32 30 28 27 27 26 27
24 23 20 18 17 16 19 24 32 38 42 53 70 73 67 64 63 60 53 45 46 45 36 33 31 31 31 30 29 30 29 28
27 26 23 23 21 21 19 17 18 24 31 32 38 60 71 71 69 65 61 58 48 48 45 40 36 34 32 29 29 28 28 30
31 29 28 27 25 24 25 23 21 20 21 27 32 35 48 66 68 71 73 66 63 56 52 48 44 39 35 32 31 29 29 28
30 28 28 30 30 27 25 23 22 21 21 22 25 33 39 42 60 72 79 81 77 68 64 63 53 50 46 41 35 34 32 30
26 24 23 21 20 19 18 18 19 18 22 24 24 24 29 36 40 50 70 71 74 81 72 66 65 64 51 48 47 41 36 34
22 22 21 19 18 16 15 14 14 12 13 17 26 30 31 31 35 40 45 63 87 82 81 88 77 69 67 64 53 52 50 41
23 22 21 19 18 16 15 14 13 12 11 11 12 19 29 32 38 36 42 47 56 79 89 76 86 86 76 74 73 62 56 55
25 23 21 21 20 18 17 17 16 14 13 12 11 11 17 23 34 41 45 42 48 57 68 86 86 80 86 90 80 80 78 69
27 27 25 23 22 20 17 17 16 16 13 12 12 12 11 12 18 35 45 47 50 54 61 65 85 81 95 93 95 86 85 84
27 28 28 26 24 22 18 16 16 16 15 14 12 11 11 10 12 19 26 37 47 60 54 64 63 84 80 91 97 96 95 93
29 30 29 27 25 23 19 17 17 17 17 16 15 13 11 10 9 11 15 20 29 43 62 58 74 69 69 79 91 92 87 95
30 30 29 27 25 23 19 18 17 16 16 16 16 15 13 11 9 9 11 15 15 19 31 65 73 71 71 73 76 66 72 84
29 30 30 26 25 23 20 18 17 16 17 16 17 14 12 13 14 13 11 11 12 17 18 33 46 63 77 85 75 84 86 76
29 30 27 26 25 21 20 19 18 18 18 17 17 13 12 12 12 12 14 15 14 14 17 24 30 29 48 77 77 81 67 72
30 28 27 27 24 21 20 19 18 18 17 18 17 14 13 13 14 15 15 16 19 19 20 20 19 23 27 35 50 59 75 78
30 29 28 25 21 20 19 18 18 18 18 18 16 15 14 14 16 17 18 18 20 22 22 24 25 24 25 27 30 35 55 81
31 29 26 23 20 20 18 18 19 19 20 16 15 16 18 18 19 21 24 24 21 23 25 27 26 26 27 27 29 36 35 39

GFSFLT1_prec_cthk_264.txt.gz
RH
32 30 29 30 39 49 53 59 58 62 68 65 55 57 68 65 62 64 62 61 50 46 45 48 49 48 44 44 40 39 35 32
22 21 20 18 18 25 39 45 51 57 58 64 57 58 55 71 69 70 73 79 76 69 61 55 51 53 49 51 53 47 43 41
20 19 17 15 14 14 15 20 28 29 33 30 35 35 34 40 51 65 69 70 71 84 78 83 80 66 60 58 53 55 48 47
22 20 17 15 15 14 12 11 10 11 13 14 16 17 19 22 25 28 33 45 58 66 73 78 80 75 79 70 63 57 64 50
21 17 14 12 10 10 9 9 8 8 8 8 9 11 14 16 18 18 20 25 29 34 42 54 71 74 84 90 84 71 64 61
19 17 14 13 11 9 8 7 6 6 5 5 5 5 6 7 9 11 15 18 20 21 22 24 31 42 54 65 81 96 95 81
17 16 15 13 10 8 8 7 6 5 5 5 4 4 4 4 4 4 4 6 9 13 18 21 23 24 26 34 48 70 83 95
16 15 14 12 10 9 8 8 7 6 5 5 5 4 4 3 3 3 3 4 4 5 7 8 12 18 22 24 27 30 46 64
16 16 15 15 13 12 10 9 8 7 7 6 5 5 4 4 4 4 4 3 3 4 4 4 5 6 8 14 20 24 29 34
18 18 17 15 14 14 13 11 10 9 9 9 8 7 6 4 4 4 4 3 3 3 3 3 4 4 5 6 8 11 18 28
19 19 19 18 16 15 14 12 10 9 9 9 9 9 7 5 5 4 4 4 4 4 4 4 4 4 5 5 5 6 10 19
20 20 20 19 18 16 14 12 11 9 10 10 9 9 8 6 5 5 5 5 5 5 6 6 6 6 6 7 8 9 15 15
21 21 21 20 18 17 16 13 11 10 11 11 10 10 8 6 5 6 6 6 6 7 7 8 9 9 9 11 14 16 16 16
23 22 21 21 21 19 16 13 12 11 12 11 11 9 6 6 6 6 7 7 7 7 8 9 10 12 14 17 19 18 19 19
23 23 23 23 21 19 16 13 13 12 12 12 11 9 7 7 7 7 7 7 8 9 10 12 15 17 20 22 23 22 22 22
24 24 24 23 22 19 16 14 14 13 13 13 11 8 8 8 8 8 8 8 9 11 13 15 18 22 26 26 27 27 28 28
24 24 24 24 23 19 16 15 14 14 14 14 10 9 10 9 9 9 9 10 11 13 15 18 21 26 29 30 32 33 33 34
25 25 25 25 24 19 17 17 15 16 16 14 10 11 11 11 11 11 11 11 12 14 16 20 23 29 32 34 36 38 38 40
25 26 27 27 23 18 18 15 17 17 16 12 12 12 12 12 12 12 12 13 14 15 18 21 24 29 33 36 38 40 43 45